Location: Chiroubles
(46.1812°N, 4.6660°E)
Time: 02:16:43
(UTC+00:00)

Cosmos 1153 Rocket - Pass Details

Date: 15 August 2020
Orbit: 954 x 1006 km, 82.9° (Epoch: 25 September)

Event Time Altitude Azimuth Distance (km) Brightness Sun altitude
Exits shadow 20:36:51 13° 176° (S) 2,435 6.2 -16.6°
Maximum altitude 20:42:16 71° 95° (E) 1,015 4.4 -17.3°
Drops below altitude 10° 20:48:27 10° 12° (NNE) 2,722 7.2 -18.1°
Sets 20:50:59 0° 11° (N) 3,680 8.0 -18.4°
